Location: Hillsman's Observatory
(38.8566°N, 93.9398°W)
Time: 20:10:06
(UTC-06:00)

Tiangong 2 - Visible Passes

Search period start: 21 November 2017 00:00
Search period end: 01 December 2017 00:00
Orbit: 386 x 392 km, 42.8° (Epoch: 21 November)

Date Brightness Start Highest point End Pass type
(mag) Time Alt. Az. Time Alt. Az. Time Alt. Az.
23 Nov 4.5 06:36:35 10° SSE 06:37:43 11° SE 06:38:50 10° ESE visible
25 Nov 3.7 06:15:24 10° SSW 06:17:55 22° SE 06:20:28 10° E visible
26 Nov 4.2 05:18:32 10° SSE 05:19:55 12° SE 05:21:19 10° ESE visible
27 Nov 2.3 05:55:16 11° SW 05:58:11 40° SSE 06:01:13 10° E visible
28 Nov 3.4 05:00:32 22° SE 05:00:32 22° SE 05:02:42 10° E visible
28 Nov 1.1 06:33:32 10° WSW 06:36:43 71° NNW 06:39:55 10° ENE visible
29 Nov 1.1 05:37:54 54° SW 05:38:29 74° SSE 05:41:41 10° ENE visible
30 Nov 4.3 04:42:45 14° E 04:42:45 14° E 04:43:21 10° E visible
30 Nov 1.4 06:15:04 19° W 06:17:07 49° NNW 06:20:15 10° ENE visible
